COSMOS 1000

Satellite information

Favourite Embed

Satellite Type and Status

PAYLOADIN ORBIT

Key statistics

Satellite COSMOS 1000 at a glance.

Uptime

17425

Days in orbit

Revolutions

≈ 13.8

Per day

Orbit

LEO

Low Earth Orbit

Inclination

82.9

Latest

Satellite identification and parameters

Extended collection of information and parameters for COSMOS 1000.

Object identification

Identified? True

Debris? False

Object name: COSMOS 1000

International designator: 1978-034A

Object number (NORAD): 10776

Object ID (CCSDS): 10776

Country: COMMONWEALTH OF INDEPENDENT STATES (CIS)

Current information (Y/N): Y

RCS size: LARGE

Orbital parameters

Period: 104.682 minutes

Inclination: 82.942 deg

SMA: 7357.69 km

Apoapsis: 1004.23 km

Periapsis: 954.88 km

RAAN: 127.1043 deg

Eccentricy: 0.0033536

Argument of periapsis: 309.2428 deg

Mean anomaly: 171.606 deg

Mean motion: 13.75594776 rev/day

Mean motion (dot): 0.00000121 rev/day2

B* drag term: 0.00011018 1/REarth

Two-line elements (TLE)

Creation date: Dec. 12, 2025, 7:16 a.m.

Reference frame: TEME

Reference center: EARTH

Epoch: Dec. 11, 2025, 10:58 p.m. UTC

TLE line 0: 0 COSMOS 1000

TLE line 1: 1 10776U 78034A 25345.95726381 .00000121 00000-0 11018-3 0 9991

TLE line 2: 2 10776 82.9420 127.1043 0033536 309.2428 171.6060 13.75594776393622

Live tracking on map

Real-time ground track for satellite COSMOS 1000.

In-orbit conjunctions

A list of the most updated potential collisions computed for object COSMOS 1000.

Target Orbit TCA Probability of collision Miss distance Type
COSMOS 2499 DEB LEO 2025-07-25 11:11:55 0.0003280728 187.0 (m) DEBRIS
ATLAS CENTAUR 2 R/B LEO 2025-02-12 04:50:52 0.00238311 611.0 (m) ROCKET BODY
FENGYUN 1C DEB SSO 2025-01-06 08:56:09 0.000101438 238.0 (m) DEBRIS

Associated space launch

Civilian navigation satellite equivalent to the purely military Parus

COSMOS 1000 was lifted into orbit during the mission ‘Kosmos-3M | Tsikada 4’, on board a Kosmos-3M space rocket.

The launch took place on March 31, 1978, 2:01 p.m. from 132/1 (132L).

For more information about the launch, click the button.

Launch to space Kosmos-3M | Tsikada 4
Kosmos-3M | Tsikada 4

Agency: N/A

Status: Launch Successful

Launch date: March 31, 1978, 2:01 p.m. UTC

Rocket: Kosmos-3M

Launch pad: 132/1 (132L)

Location: Plesetsk Cosmodrome, Russian Federation

...

Latest news about this satellite

There are no fresh news available about this satellite. Check back as we update our databases every day.


Newsletter sign-up

Weekly statistics, charts and insights to help you stay on top of the space industry.